Montpelier, VT

9:53 PM EST on November 14, 2019 (GMT -0500)
Knapp State

Weather History for KMPV - August, 2019

Change the Weather History Date:

Thursday, August 15, 2019

  Actual Average Record
Temperature  
Mean Temperature 65 °F 66 °F  
Max Temperature 77 °F 77 °F 91 °F (1965)
Min Temperature 53 °F 54 °F 39 °F (1950)
Degree Days  
Heating Degree Days 0 2  
Month to date heating degree days 20 26  
Since 1 June heating degree days 173 187  
Since 1 July heating degree days 29 66  
Cooling Degree Days 0 3  
Month to date cooling degree days 16 45  
Year to date cooling degree days 174 213  
Since 1 June cooling degree days 173 203  
Growing Degree Days 15 (Base 50)    
Moisture  
Dew Point 54 °F    
Average Humidity 74    
Maximum Humidity 100    
Minimum Humidity 46    
Precipitation  
Precipitation 0.00 in 0.14 in 1.99 in (2011)
Month to date precipitation 2.08 2.21  
Year to date precipitation 32.63 23.00  
Sea Level Pressure  
Sea Level Pressure 30.09 in    
Wind  
Wind Speed 1 mph ()    
Max Wind Speed 8 mph    
Max Gust Speed 11 mph    
Visibility 10.0 miles    
Events      
T = Trace of Precipitation, MM = Missing Value Source: Averaged Metar Reports

Daily Weather History Graph

Daily Weather History Graph

Search for Another Location

Airport or City:

Astronomy

Aug. 15, 2019 Rise Set
Actual Time 5:53 AM EDT 7:55 PM EDT
Civil Twilight 5:21 AM EDT 8:26 PM EDT
Nautical Twilight 4:43 AM EDT 9:05 PM EDT
Astronomical Twilight 4:00 AM EDT 9:47 PM EDT
Moon 8:22 PM EDT 5:43 AM EDT
Length of Visible Light 15h 04m
Length of Day
14h 01m
Full, 100% of the Moon is Illuminated
Aug 15
Full
Aug 23
Last Quarter
Aug 30
New
Sep 5
First Quarter
Sep 14
Full

Hourly Weather History & Observations

Time (EDT) Temp. Dew Point Humidity Pressure Visibility Wind Dir Wind Speed Gust Speed Precip Events Conditions
12:51 AM 57.9 °F 55.0 °F 90% 30.06 in 10.0 mi Calm Calm - N/A   Mostly Cloudy
1:51 AM 55.9 °F 54.0 °F 93% 30.06 in 10.0 mi NW 4.6 mph - N/A   Mostly Cloudy
2:51 AM 54.0 °F 53.1 °F 97% 30.07 in 10.0 mi Calm Calm - N/A   Scattered Clouds
3:51 AM 55.9 °F 54.0 °F 93% 30.07 in 10.0 mi Calm Calm - N/A   Overcast
4:51 AM 55.9 °F 54.0 °F 93% 30.08 in 10.0 mi Calm Calm - N/A   Overcast
5:51 AM 53.1 °F 52.0 °F 96% 30.10 in 10.0 mi Calm Calm - N/A   Mostly Cloudy
6:51 AM 55.0 °F 53.1 °F 93% 30.11 in 10.0 mi NNE 3.5 mph - N/A   Scattered Clouds
7:51 AM 57.0 °F 54.0 °F 89% 30.12 in 10.0 mi Calm Calm - N/A   Scattered Clouds
8:51 AM 60.1 °F 53.1 °F 78% 30.13 in 10.0 mi Calm Calm - N/A   Mostly Cloudy
9:51 AM 62.1 °F 53.1 °F 72% 30.13 in 10.0 mi Calm Calm - N/A   Clear
10:51 AM 66.9 °F 52.0 °F 59% 30.13 in 10.0 mi Variable 5.8 mph - N/A   Clear
11:51 AM 69.1 °F 48.9 °F 49% 30.12 in 10.0 mi Calm Calm - N/A   Clear
12:51 PM 70.0 °F 51.1 °F 51% 30.10 in 10.0 mi Variable 4.6 mph - N/A   Clear
1:51 PM 73.0 °F 53.1 °F 49% 30.09 in 10.0 mi Variable 3.5 mph - N/A   Clear
2:51 PM 73.9 °F 52.0 °F 46% 30.08 in 10.0 mi Calm Calm - N/A   Partly Cloudy
3:51 PM 75.0 °F 53.1 °F 46% 30.06 in 10.0 mi Calm Calm - N/A   Scattered Clouds
4:51 PM 73.9 °F 52.0 °F 46% 30.06 in 10.0 mi Calm Calm - N/A   Partly Cloudy
5:51 PM 73.9 °F 53.1 °F 48% 30.05 in 10.0 mi NW 3.5 mph - N/A   Clear
6:51 PM 72.0 °F 57.0 °F 59% 30.06 in 10.0 mi Calm Calm - N/A   Clear
7:51 PM 63.0 °F 57.9 °F 84% 30.07 in 10.0 mi Calm Calm - N/A   Clear
8:51 PM 61.0 °F 57.9 °F 90% 30.08 in 10.0 mi Calm Calm - N/A   Mostly Cloudy
9:51 PM 63.0 °F 57.9 °F 84% 30.08 in 10.0 mi West 3.5 mph - N/A   Overcast
10:51 PM 61.0 °F 57.0 °F 87% 30.07 in 10.0 mi Calm Calm - N/A   Scattered Clouds
11:51 PM 62.1 °F 57.0 °F 84% 30.07 in 10.0 mi SSE 3.5 mph - N/A   Scattered Clouds